Satellite-Ground Cal/Val Site Overpasses Predictions

Prediction of Satellite NPP Overpassing Cal/Val Site: Antarctic Dome C

Ground Cal/Val Site Location: Latitude: -75.10, Longitude: 123.35; Satellite-Ground Site NADIR distance within 100 km.

Table of predicted overpasses for the next 14.0 days since TLE Epoch: 1/4/2020
Interval Starting Time Ending Time Minimum Distance Time Minimum Distance (km)
1 01/06/2020 14:54:28 01/06/2020 14:54:57 01/06/2020 14:54:42 19.30
2 01/07/2020 14:35:46 01/07/2020 14:36:00 01/07/2020 14:35:53 87.69
3 01/08/2020 07:37:18 01/08/2020 07:37:45 01/08/2020 07:37:31 35.38
4 01/09/2020 07:18:31 01/09/2020 07:18:50 01/09/2020 07:18:40 74.86
5 01/11/2020 15:00:43 01/11/2020 15:01:07 01/11/2020 15:00:55 56.07
6 01/12/2020 14:41:53 01/12/2020 14:42:18 01/12/2020 14:42:06 53.14
7 01/13/2020 07:43:33 01/13/2020 07:43:53 01/13/2020 07:43:43 70.30
8 01/14/2020 07:24:40 01/14/2020 07:25:07 01/14/2020 07:24:53 37.84
9 01/16/2020 15:07:04 01/16/2020 15:07:13 01/16/2020 15:07:09 93.49


NCC Satellite Cal/Val Overpasses Prediction Service
